STARLINK-4262, 53015

Orbit data source: Space-Track

STARLINK-4262, 53015 is a payload satellite owned by SpaceX/Seattle (US) in LEO that was launched on Thu, 07 Jul 2022 UTC via an FALCON 9 launch vehicle from the Air Force Eastern Test Range (AFETR). Payload-class satellites include a variety of spacecraft equipped with specific instruments for various scientific and technological missions. These include communications satellites like Starlink; space stations such as the ISS; scientific satellites like the Hubble; Earth observation satellites from companies like Planet Labs, Umbra, and HawkEye 360; GPS; miniature CubeSats for education and research; and military/defense satellites.

Loading next visibility...
Identifier
53015, 2022-076AF
Orbit
LEO
Country
Flag of USUS
Related business
Manufacturer
SpaceX/Seattle
Mission
Operational Commercial Communications
Bus & Motor
STARLINK, Unknown motor
Mass
297 kg wet, ~275 kg dry
Launch date (UTC)
2022-07-07 (4 years ago)
Launch vehicle
FALCON 9
Launch site
Air Force Eastern Test Range (AFETR)
Object type
Payload
Rocket body
Debris
Shape & HBR
Box + 1 Pan, 10.1 m
Radar Cross Section
13.562 m², Large (>1 m²)

Expand to show TLE details & history
Last TLE update: 3 days ago

TLE from 3 days ago
0 STARLINK-4262
1 53015U 22076AF  26170.76257192  .00000293  00000-0  36511-4 0  9990
2 53015  53.1600 345.7825 0001061 109.5842 250.5264 15.08836871218396
Epoch: 2026-06-19T18:18Z
TLE epoch observation values (Epoch: 2026-06-19T18:18:06.213Z)
Latitude
-0.00004°
Longitude
163.26969°
Altitude
540.889 km
Speed
7.593 km/s
True Right ascension
23h 03m 07s
True Declination
0° 00' 00"
Sunlit
Object was in daylight at epoch
Visualization orbit readout
Latitude
Unknown
Longitude
Unknown
Altitude
Unknown
Speed
Unknown
Apparent Right ascension
Unknown
Apparent Declination
Unknown
Sunlit
N/A
Visualization observer readout
Local Sidereal Time
21:36:59
Azimuth
Unknown
Elevation
Unknown
Doppler factor
Unknown
Orbital elements
Apogee altitude
540.741 km
Perigee altitude
539.273 km
Semi-major axis
6,918.144 km
Eccentricity
0.00011
Inclination
53.16°
RAAN
345.7825°
Arg. of periapsis
109.5842°
True anomaly
250.51494°
Mean anomaly
250.5264°
Eccentric anomaly
250.52067°
Mean motion
3.77189 °/min
Orbital period
95.44 mins
BSTAR
0.000036511
Loading maneuver chart data...
Computing Atmospheric mass density...
Loading historical data...
Loading historical data...
Loading historical data...
Loading historical data...
Loading historical data...
Loading historical data...
Loading historical data...

Documentation

Showing up to 5 results
|